TimeMDT,TemperatureF,Dew PointF,Humidity,Sea Level PressureIn,VisibilityMPH,Wind Direction,Wind SpeedMPH,Gust SpeedMPH,PrecipitationIn,Events,Conditions,WindDirDegrees,DateUTC
12:53 AM,48.0,42.1,80,29.76,10.0,WSW,10.4,-,N/A,,Scattered Clouds,240,2013-09-25 06:53:00
1:53 AM,46.9,42.1,83,29.75,10.0,SW,3.5,-,N/A,,Scattered Clouds,220,2013-09-25 07:53:00
2:53 AM,46.0,41.0,83,29.70,10.0,West,4.6,-,N/A,,Mostly Cloudy,260,2013-09-25 08:53:00
3:53 AM,46.9,42.1,83,29.68,10.0,South,3.5,-,N/A,,Overcast,170,2013-09-25 09:53:00
4:53 AM,46.0,42.1,86,29.66,10.0,ESE,3.5,-,N/A,,Mostly Cloudy,120,2013-09-25 10:53:00
5:53 AM,44.1,39.9,85,29.64,10.0,Calm,Calm,-,N/A,,Overcast,0,2013-09-25 11:53:00
6:53 AM,45.0,42.1,90,29.65,10.0,West,9.2,-,0.00,Rain,Light Rain,270,2013-09-25 12:53:00
7:53 AM,44.1,42.1,93,29.68,8.0,SW,6.9,-,0.09,Rain,Rain,220,2013-09-25 13:53:00
8:03 AM,44.6,42.8,93,29.70,6.0,SE,4.6,-,0.04,Rain,Light Rain,140,2013-09-25 14:03:00
8:10 AM,44.6,41.0,87,29.69,10.0,ESE,3.5,-,0.04,Rain,Light Rain,110,2013-09-25 14:10:00
8:53 AM,44.1,42.1,93,29.68,10.0,SSW,10.4,-,0.05,Rain,Light Rain,200,2013-09-25 14:53:00
9:04 AM,44.6,42.8,93,29.70,10.0,WSW,16.1,21.9,0.00,Rain,Light Rain,240,2013-09-25 15:04:00
9:19 AM,42.8,42.8,100,29.71,10.0,WSW,15.0,21.9,0.01,Rain,Light Rain,250,2013-09-25 15:19:00
9:53 AM,42.1,42.1,100,29.70,10.0,WSW,12.7,-,0.01,,Overcast,250,2013-09-25 15:53:00
10:11 AM,41.0,41.0,100,29.72,10.0,WSW,11.5,-,N/A,,Overcast,240,2013-09-25 16:11:00
10:53 AM,41.0,39.9,96,29.71,10.0,SW,13.8,-,N/A,,Overcast,220,2013-09-25 16:53:00
11:08 AM,42.8,39.2,87,29.72,10.0,SW,16.1,-,N/A,,Overcast,220,2013-09-25 17:08:00
11:48 AM,42.8,41.0,93,29.73,10.0,SW,17.3,-,0.00,Rain,Light Rain,230,2013-09-25 17:48:00
11:53 AM,42.1,41.0,96,29.72,10.0,SW,17.3,24.2,0.01,Rain,Light Rain,220,2013-09-25 17:53:00
12:32 PM,41.0,39.2,93,29.73,10.0,SSW,21.9,29.9,0.01,Rain,Light Rain,210,2013-09-25 18:32:00
12:53 PM,39.9,39.0,97,29.73,10.0,SW,21.9,28.8,0.01,Rain,Light Rain,220,2013-09-25 18:53:00
1:53 PM,44.1,42.1,93,29.73,10.0,WSW,15.0,21.9,0.02,,Overcast,240,2013-09-25 19:53:00
2:05 PM,44.6,42.8,93,29.74,10.0,WSW,16.1,-,N/A,,Overcast,240,2013-09-25 20:05:00
2:07 PM,44.6,42.8,93,29.74,10.0,WSW,13.8,-,N/A,,Overcast,240,2013-09-25 20:07:00
2:50 PM,46.4,41.0,81,29.73,10.0,WSW,17.3,24.2,N/A,,Mostly Cloudy,240,2013-09-25 20:50:00
2:53 PM,46.9,41.0,80,29.72,10.0,WSW,16.1,24.2,N/A,,Mostly Cloudy,240,2013-09-25 20:53:00
3:07 PM,48.2,41.0,76,29.73,10.0,WSW,18.4,24.2,N/A,,Scattered Clouds,240,2013-09-25 21:07:00
3:53 PM,51.1,39.9,66,29.70,10.0,WSW,18.4,26.5,N/A,,Scattered Clouds,250,2013-09-25 21:53:00
4:53 PM,50.0,39.9,68,29.72,10.0,West,12.7,20.7,N/A,,Mostly Cloudy,260,2013-09-25 22:53:00
5:53 PM,51.1,37.9,61,29.73,10.0,WSW,18.4,21.9,N/A,,Mostly Cloudy,240,2013-09-25 23:53:00
6:53 PM,46.9,39.9,77,29.73,10.0,West,10.4,-,N/A,,Partly Cloudy,270,2013-09-26 00:53:00
7:53 PM,44.1,39.0,82,29.75,10.0,SW,9.2,-,N/A,,Clear,230,2013-09-26 01:53:00
8:53 PM,42.1,39.0,89,29.78,10.0,SW,11.5,-,N/A,,Clear,230,2013-09-26 02:53:00
9:53 PM,41.0,39.0,93,29.78,10.0,SW,9.2,-,N/A,,Clear,230,2013-09-26 03:53:00
10:32 PM,41.0,39.2,93,29.77,10.0,SW,10.4,-,N/A,,Mostly Cloudy,220,2013-09-26 04:32:00
10:53 PM,41.0,39.0,93,29.78,10.0,SW,11.5,-,N/A,,Overcast,230,2013-09-26 04:53:00
11:53 PM,41.0,39.0,93,29.78,10.0,SW,15.0,-,N/A,,Overcast,220,2013-09-26 05:53:00